Powrót do katalogu

OPS 2644 DEB

AktywnyPO
NORAD 3840·DEBRIS·🇺🇸 United States

Wystrzelony Feb 5, 1969 z Vandenberg Space Force Base

Loading…

Następne Przeloty (najbliższe 24 godziny)

TLE

ŚwieżeSource: Space-Track

Epoka: Sep 13, 2026, 11:15 UTC

1 03840U 69010C   26256.46883803  .00000019  00000-0  73286-4 0  9992
2 03840  80.6016 260.0011 0033599   7.1708 145.9170 12.58672066644396

Śledź OPS 2644 DEB w czasie rzeczywistym z AllMySat

Download on the App Store